Time,TemperatureF,DewpointF,PressureIn,WindDirection,WindDirectionDegrees,WindSpeedMPH,WindSpeedGustMPH,Humidity,HourlyPrecipIn,Conditions,Clouds,dailyrainin,SoftwareType,DateUTC
2013-04-30 00:00:00,70.0,56.4,29.86,South,172,3.0,8.0,62,0.00,,,0.00,VWS V14.01,2013-04-30 05:00:00,
2013-04-30 00:01:00,70.1,56.5,29.86,SE,145,4.5,5.0,62,0.00,,,0.00,VWS V14.01,2013-04-30 05:01:00,
2013-04-30 00:06:00,69.9,56.3,29.86,South,177,4.5,6.0,62,0.00,,,0.00,VWS V14.01,2013-04-30 05:06:00,
2013-04-30 00:11:00,69.8,56.2,29.86,SSE,163,3.0,6.0,62,0.00,,,0.00,VWS V14.01,2013-04-30 05:11:00,
2013-04-30 00:16:00,69.6,56.5,29.86,South,172,4.5,8.0,63,0.00,,,0.00,VWS V14.01,2013-04-30 05:16:00,
2013-04-30 00:21:00,69.5,56.4,29.86,South,190,4.5,8.0,63,0.00,,,0.00,VWS V14.01,2013-04-30 05:21:00,
2013-04-30 00:26:00,69.2,56.5,29.86,SSE,149,4.5,11.0,64,0.00,,,0.00,VWS V14.01,2013-04-30 05:26:00,
2013-04-30 00:31:00,69.2,56.5,29.86,SSE,167,1.5,11.0,64,0.00,,,0.00,VWS V14.01,2013-04-30 05:31:00,
2013-04-30 00:36:00,69.1,56.4,29.86,South,176,4.5,11.0,64,0.00,,,0.00,VWS V14.01,2013-04-30 05:36:00,
2013-04-30 00:41:00,69.2,57.0,29.86,SSW,193,6.0,11.0,65,0.00,,,0.00,VWS V14.01,2013-04-30 05:41:00,
2013-04-30 00:46:00,69.1,56.8,29.86,SSW,212,6.0,11.0,65,0.00,,,0.00,VWS V14.01,2013-04-30 05:46:00,
2013-04-30 00:51:00,69.1,56.8,29.87,SSE,156,6.0,11.0,65,0.00,,,0.00,VWS V14.01,2013-04-30 05:51:00,
2013-04-30 00:56:00,69.0,56.8,29.87,SW,228,3.0,11.0,65,0.00,,,0.00,VWS V14.01,2013-04-30 05:56:00,
2013-04-30 01:00:00,70.0,56.4,29.86,South,172,3.0,8.0,62,0.00,,,0.00,VWS V15.00,2013-04-30 06:00:00,
2013-04-30 01:01:00,68.9,57.1,29.87,SSE,165,10.5,11.0,66,0.00,,,0.00,VWS V14.01,2013-04-30 06:01:00,
2013-04-30 01:06:00,68.8,57.0,29.87,South,169,3.0,11.0,66,0.00,,,0.00,VWS V14.01,2013-04-30 06:06:00,
2013-04-30 01:11:00,68.7,56.9,29.87,South,180,4.5,11.0,66,0.00,,,0.00,VWS V14.01,2013-04-30 06:11:00,
2013-04-30 01:16:00,68.7,56.9,29.87,South,181,4.5,11.0,66,0.00,,,0.00,VWS V14.01,2013-04-30 06:16:00,
2013-04-30 01:21:00,68.6,56.8,29.87,SE,141,3.0,11.0,66,0.00,,,0.00,VWS V14.01,2013-04-30 06:21:00,
2013-04-30 01:26:00,68.6,56.8,29.86,SW,232,4.5,11.0,66,0.00,,,0.00,VWS V14.01,2013-04-30 06:26:00,
2013-04-30 01:31:00,68.4,56.6,29.86,South,185,3.0,11.0,66,0.00,,,0.00,VWS V14.01,2013-04-30 06:31:00,
2013-04-30 01:36:00,68.4,57.0,29.86,SSE,162,6.0,11.0,67,0.00,,,0.00,VWS V14.01,2013-04-30 06:36:00,
2013-04-30 01:41:00,68.3,56.9,29.86,SSE,158,4.5,11.0,67,0.00,,,0.00,VWS V14.01,2013-04-30 06:41:00,
2013-04-30 01:46:00,68.1,56.7,29.86,South,183,6.0,11.0,67,0.00,,,0.00,VWS V14.01,2013-04-30 06:46:00,
2013-04-30 01:51:00,67.9,57.0,29.86,SSE,162,10.5,11.0,68,0.00,,,0.00,VWS V14.01,2013-04-30 06:51:00,
2013-04-30 01:56:00,67.8,56.9,29.86,SSE,165,4.5,11.0,68,0.00,,,0.00,VWS V14.01,2013-04-30 06:56:00,
2013-04-30 02:00:00,67.6,56.7,29.86,SSE,163,1.5,11.0,68,0.00,,,0.00,VWS V14.01,2013-04-30 07:00:00,
2013-04-30 02:01:00,67.6,56.7,29.86,SSE,153,1.5,4.0,68,0.00,,,0.00,VWS V14.01,2013-04-30 07:01:00,
2013-04-30 02:06:00,67.5,56.6,29.86,South,169,1.5,5.0,68,0.00,,,0.00,VWS V14.01,2013-04-30 07:06:00,
2013-04-30 02:11:00,67.4,56.9,29.86,South,187,3.0,5.0,69,0.00,,,0.00,VWS V14.01,2013-04-30 07:11:00,
2013-04-30 02:16:00,67.2,56.7,29.86,South,170,1.5,5.0,69,0.00,,,0.00,VWS V14.01,2013-04-30 07:16:00,
2013-04-30 02:21:00,67.1,56.6,29.86,SSE,160,4.5,5.0,69,0.00,,,0.00,VWS V14.01,2013-04-30 07:21:00,
2013-04-30 02:26:00,66.9,56.8,29.86,South,184,3.0,5.0,70,0.00,,,0.00,VWS V14.01,2013-04-30 07:26:00,
2013-04-30 02:31:00,66.8,56.7,29.86,SSE,163,1.5,5.0,70,0.00,,,0.00,VWS V14.01,2013-04-30 07:31:00,
2013-04-30 02:36:00,66.6,56.5,29.86,SSW,194,1.5,5.0,70,0.00,,,0.00,VWS V14.01,2013-04-30 07:36:00,
2013-04-30 02:41:00,66.3,56.6,29.86,SE,143,4.5,5.0,71,0.00,,,0.00,VWS V14.01,2013-04-30 07:41:00,
2013-04-30 02:46:00,66.1,56.4,29.86,SSE,168,3.0,5.0,71,0.00,,,0.00,VWS V14.01,2013-04-30 07:46:00,
2013-04-30 02:51:00,66.2,56.9,29.86,SE,138,3.0,5.0,72,0.00,,,0.00,VWS V14.01,2013-04-30 07:51:00,
2013-04-30 02:56:00,66.3,57.0,29.86,SSE,158,6.0,7.0,72,0.00,,,0.00,VWS V14.01,2013-04-30 07:56:00,
2013-04-30 03:00:00,67.6,56.7,29.86,SSE,163,1.5,11.0,68,0.00,,,0.00,VWS V15.00,2013-04-30 08:00:00,
2013-04-30 03:01:00,66.3,56.6,29.86,SSE,149,3.0,7.0,71,0.00,,,0.00,VWS V14.01,2013-04-30 08:01:00,
2013-04-30 03:06:00,66.3,57.0,29.86,SSE,166,3.0,7.0,72,0.00,,,0.00,VWS V14.01,2013-04-30 08:06:00,
2013-04-30 03:11:00,66.0,56.7,29.85,SSE,162,1.5,7.0,72,0.00,,,0.00,VWS V14.01,2013-04-30 08:11:00,
2013-04-30 03:16:00,65.9,56.6,29.86,SE,142,1.5,7.0,72,0.00,,,0.00,VWS V14.01,2013-04-30 08:16:00,
2013-04-30 03:21:00,65.9,56.6,29.86,SSE,163,3.0,7.0,72,0.00,,,0.00,VWS V14.01,2013-04-30 08:21:00,
2013-04-30 03:26:00,66.0,56.7,29.86,SSE,162,6.0,7.0,72,0.00,,,0.00,VWS V14.01,2013-04-30 08:26:00,
2013-04-30 03:31:00,66.2,56.9,29.86,SW,220,6.0,8.0,72,0.00,,,0.00,VWS V14.01,2013-04-30 08:31:00,
2013-04-30 03:36:00,66.1,56.8,29.86,South,174,9.0,9.0,72,0.00,,,0.00,VWS V14.01,2013-04-30 08:36:00,
2013-04-30 03:41:00,66.0,56.7,29.86,South,170,6.0,8.0,72,0.00,,,0.00,VWS V14.01,2013-04-30 08:41:00,
2013-04-30 03:46:00,66.0,56.7,29.86,SSE,162,4.5,9.0,72,0.00,,,0.00,VWS V14.01,2013-04-30 08:46:00,
2013-04-30 03:51:00,66.1,56.8,29.86,ESE,122,1.5,9.0,72,0.00,,,0.00,VWS V14.01,2013-04-30 08:51:00,
2013-04-30 03:56:00,65.9,56.6,29.86,South,173,1.5,9.0,72,0.00,,,0.00,VWS V14.01,2013-04-30 08:56:00,
2013-04-30 04:00:00,65.8,56.5,29.86,SE,145,1.5,9.0,72,0.00,,,0.00,VWS V14.01,2013-04-30 09:00:00,
2013-04-30 04:01:00,65.8,56.5,29.86,South,183,3.0,5.0,72,0.00,,,0.00,VWS V14.01,2013-04-30 09:01:00,
2013-04-30 04:06:00,65.7,56.4,29.86,South,170,4.5,7.0,72,0.00,,,0.00,VWS V14.01,2013-04-30 09:06:00,
2013-04-30 04:11:00,65.6,56.3,29.86,South,177,1.5,7.0,72,0.00,,,0.00,VWS V14.01,2013-04-30 09:11:00,
2013-04-30 04:16:00,65.4,56.2,29.86,SSE,159,1.5,7.0,72,0.00,,,0.00,VWS V14.01,2013-04-30 09:16:00,
2013-04-30 04:21:00,65.4,56.2,29.86,SSW,205,3.0,7.0,72,0.00,,,0.00,VWS V14.01,2013-04-30 09:21:00,
2013-04-30 04:26:00,65.4,56.2,29.86,SSE,163,0.0,7.0,72,0.00,,,0.00,VWS V14.01,2013-04-30 09:26:00,
2013-04-30 04:31:00,65.1,56.2,29.86,South,188,1.5,7.0,73,0.00,,,0.00,VWS V14.01,2013-04-30 09:31:00,
2013-04-30 04:36:00,64.8,56.0,29.86,SSW,198,3.0,7.0,73,0.00,,,0.00,VWS V14.01,2013-04-30 09:36:00,
2013-04-30 04:41:00,64.7,56.2,29.86,SSE,158,3.0,7.0,74,0.00,,,0.00,VWS V14.01,2013-04-30 09:41:00,
2013-04-30 04:46:00,64.4,55.9,29.86,SSE,154,1.5,7.0,74,0.00,,,0.00,VWS V14.01,2013-04-30 09:46:00,
2013-04-30 04:51:00,64.1,56.0,29.86,South,174,4.5,7.0,75,0.00,,,0.00,VWS V14.01,2013-04-30 09:51:00,
2013-04-30 04:56:00,64.0,55.9,29.86,SSE,158,1.5,7.0,75,0.00,,,0.00,VWS V14.01,2013-04-30 09:56:00,
2013-04-30 05:00:00,65.8,56.5,29.86,SE,145,1.5,9.0,72,0.00,,,0.00,VWS V15.00,2013-04-30 10:00:00,
2013-04-30 05:01:00,63.9,55.8,29.86,South,187,0.0,7.0,75,0.00,,,0.00,VWS V14.01,2013-04-30 10:01:00,
2013-04-30 05:06:00,63.7,56.0,29.86,South,177,1.5,7.0,76,0.00,,,0.00,VWS V14.01,2013-04-30 10:06:00,
2013-04-30 05:11:00,63.6,55.9,29.86,SSE,166,0.0,7.0,76,0.00,,,0.00,VWS V14.01,2013-04-30 10:11:00,
2013-04-30 05:16:00,63.4,55.7,29.86,SSE,166,0.0,7.0,76,0.00,,,0.00,VWS V14.01,2013-04-30 10:16:00,
2013-04-30 05:21:00,63.0,55.3,29.86,SSE,166,0.0,7.0,76,0.00,,,0.00,VWS V14.01,2013-04-30 10:21:00,
2013-04-30 05:26:00,62.6,55.3,29.87,SSE,166,0.0,7.0,77,0.00,,,0.00,VWS V14.01,2013-04-30 10:26:00,
2013-04-30 05:31:00,62.0,55.4,29.87,SSE,166,0.0,7.0,79,0.00,,,0.00,VWS V14.01,2013-04-30 10:31:00,
2013-04-30 05:36:00,61.5,54.9,29.87,SSE,166,0.0,7.0,79,0.00,,,0.00,VWS V14.01,2013-04-30 10:36:00,
2013-04-30 05:41:00,61.0,55.1,29.87,SSE,166,0.0,7.0,81,0.00,,,0.00,VWS V14.01,2013-04-30 10:41:00,
2013-04-30 05:46:00,60.6,54.8,29.87,SSE,166,0.0,7.0,81,0.00,,,0.00,VWS V14.01,2013-04-30 10:46:00,
2013-04-30 05:51:00,60.2,54.7,29.87,SSE,166,0.0,7.0,82,0.00,,,0.00,VWS V14.01,2013-04-30 10:51:00,
2013-04-30 05:56:00,59.7,54.5,29.87,SSE,166,0.0,7.0,83,0.00,,,0.00,VWS V14.01,2013-04-30 10:56:00,
2013-04-30 06:00:00,59.5,54.7,29.88,SSE,166,0.0,7.0,84,0.00,,,0.00,VWS V14.01,2013-04-30 11:00:00,
2013-04-30 06:01:00,59.4,54.6,29.88,SSE,166,0.0,0.0,84,0.00,,,0.00,VWS V14.01,2013-04-30 11:01:00,
2013-04-30 06:06:00,59.1,54.3,29.88,SSE,166,0.0,0.0,84,0.00,,,0.00,VWS V14.01,2013-04-30 11:06:00,
2013-04-30 06:11:00,58.7,53.9,29.88,SSE,166,0.0,0.0,84,0.00,,,0.00,VWS V14.01,2013-04-30 11:11:00,
2013-04-30 06:16:00,58.2,53.7,29.88,SSE,166,0.0,0.0,85,0.00,,,0.00,VWS V14.01,2013-04-30 11:16:00,
2013-04-30 06:21:00,57.8,54.0,29.88,SSE,166,0.0,0.0,87,0.00,,,0.00,VWS V14.01,2013-04-30 11:21:00,
2013-04-30 06:26:00,57.5,54.0,29.89,SSE,166,0.0,0.0,88,0.00,,,0.00,VWS V14.01,2013-04-30 11:26:00,
2013-04-30 06:31:00,57.2,53.7,29.89,SSE,166,0.0,0.0,88,0.00,,,0.00,VWS V14.01,2013-04-30 11:31:00,
2013-04-30 06:36:00,56.9,53.7,29.89,SSE,167,0.0,0.0,89,0.00,,,0.00,VWS V14.01,2013-04-30 11:36:00,
2013-04-30 06:41:00,56.9,54.0,29.90,SSE,166,0.0,0.0,90,0.00,,,0.00,VWS V14.01,2013-04-30 11:41:00,
2013-04-30 06:46:00,57.0,54.1,29.90,SSE,167,0.0,0.0,90,0.00,,,0.00,VWS V14.01,2013-04-30 11:46:00,
2013-04-30 06:51:00,57.5,54.6,29.90,SSE,166,0.0,0.0,90,0.00,,,0.00,VWS V14.01,2013-04-30 11:51:00,
2013-04-30 06:56:00,58.1,54.9,29.90,SSE,166,0.0,0.0,89,0.00,,,0.00,VWS V14.01,2013-04-30 11:56:00,
2013-04-30 07:00:00,59.5,54.7,29.88,SSE,166,0.0,7.0,84,0.00,,,0.00,VWS V15.00,2013-04-30 12:00:00,
2013-04-30 07:01:00,58.5,55.0,29.90,SSE,166,0.0,0.0,88,0.00,,,0.00,VWS V14.01,2013-04-30 12:01:00,
2013-04-30 07:06:00,59.4,55.2,29.90,SSE,166,0.0,0.0,86,0.00,,,0.00,VWS V14.01,2013-04-30 12:06:00,
2013-04-30 07:11:00,60.1,55.6,29.90,SSE,166,0.0,0.0,85,0.00,,,0.00,VWS V14.01,2013-04-30 12:11:00,
2013-04-30 07:15:00,61.1,55.9,29.91,SSE,166,0.0,0.0,83,0.00,,,0.00,VWS V14.01,2013-04-30 12:15:00,
2013-04-30 07:21:00,61.8,56.2,29.91,SSE,166,0.0,0.0,82,0.00,,,0.00,VWS V14.01,2013-04-30 12:21:00,
2013-04-30 07:26:00,62.9,56.6,29.91,SSE,166,0.0,0.0,80,0.00,,,0.00,VWS V14.01,2013-04-30 12:26:00,
2013-04-30 07:31:00,64.7,57.3,29.91,SSE,167,0.0,0.0,77,0.00,,,0.00,VWS V14.01,2013-04-30 12:31:00,
2013-04-30 07:35:00,66.8,58.3,29.91,SSE,166,0.0,0.0,74,0.00,,,0.00,VWS V14.01,2013-04-30 12:35:00,
2013-04-30 07:40:00,67.9,58.2,29.91,SSE,166,0.0,0.0,71,0.00,,,0.00,VWS V14.01,2013-04-30 12:40:00,
2013-04-30 07:45:00,68.0,58.3,29.91,ESE,116,0.0,1.0,71,0.00,,,0.00,VWS V14.01,2013-04-30 12:45:00,
2013-04-30 07:50:00,67.7,57.6,29.91,ESE,115,0.0,1.0,70,0.00,,,0.00,VWS V14.01,2013-04-30 12:50:00,
2013-04-30 07:55:00,67.6,57.9,29.91,ESE,114,0.0,1.0,71,0.00,,,0.00,VWS V14.01,2013-04-30 12:55:00,
2013-04-30 08:00:00,68.4,58.2,29.91,SE,131,1.5,1.5,70,0.00,,,0.00,VWS V14.01,2013-04-30 13:00:00,
2013-04-30 08:05:00,69.5,58.5,29.91,SE,133,0.0,1.0,68,0.00,,,0.00,VWS V14.01,2013-04-30 13:05:00,
2013-04-30 08:10:00,69.9,58.0,29.91,SSE,153,0.0,3.0,66,0.00,,,0.00,VWS V14.01,2013-04-30 13:10:00,
2013-04-30 08:15:00,70.2,57.9,29.91,SSE,163,6.0,6.0,65,0.00,,,0.00,VWS V14.01,2013-04-30 13:15:00,
2013-04-30 08:20:00,70.1,57.4,29.91,South,182,3.0,5.0,64,0.00,,,0.00,VWS V14.01,2013-04-30 13:20:00,
2013-04-30 08:25:00,70.2,57.0,29.91,SW,217,3.0,6.0,63,0.00,,,0.00,VWS V14.01,2013-04-30 13:25:00,
2013-04-30 08:30:00,70.3,58.0,29.91,SSW,197,0.0,6.0,65,0.00,,,0.00,VWS V14.01,2013-04-30 13:30:00,
2013-04-30 08:35:00,70.6,57.4,29.91,SSE,160,4.5,6.0,63,0.00,,,0.00,VWS V14.01,2013-04-30 13:35:00,
2013-04-30 08:40:00,70.9,57.7,29.91,SSW,205,3.0,6.0,63,0.00,,,0.00,VWS V14.01,2013-04-30 13:40:00,
2013-04-30 08:45:00,71.1,57.9,29.91,SSW,210,1.5,6.0,63,0.00,,,0.00,VWS V14.01,2013-04-30 13:45:00,
2013-04-30 08:50:00,71.2,57.5,29.91,SSE,155,9.0,9.0,62,0.00,,,0.00,VWS V14.01,2013-04-30 13:50:00,
2013-04-30 08:55:00,71.2,57.1,29.91,South,191,1.5,9.0,61,0.00,,,0.00,VWS V14.01,2013-04-30 13:55:00,
2013-04-30 09:00:00,71.3,57.2,29.91,South,191,6.0,9.0,61,0.00,,,0.00,VWS V14.01,2013-04-30 14:00:00,
2013-04-30 09:05:00,71.4,57.7,29.92,SW,226,12.0,12.0,62,0.00,,,0.00,VWS V14.01,2013-04-30 14:05:00,
2013-04-30 09:10:00,71.5,57.4,29.92,South,180,7.5,13.0,61,0.00,,,0.00,VWS V14.01,2013-04-30 14:10:00,
2013-04-30 09:15:00,71.8,57.6,29.92,SE,138,6.0,13.0,61,0.00,,,0.00,VWS V14.01,2013-04-30 14:15:00,
2013-04-30 09:20:00,72.3,57.7,29.91,SSW,207,4.5,13.0,60,0.00,,,0.00,VWS V14.01,2013-04-30 14:20:00,
2013-04-30 09:25:00,72.5,56.9,29.91,WSW,242,4.5,13.0,58,0.00,,,0.00,VWS V14.01,2013-04-30 14:25:00,
2013-04-30 09:30:00,72.9,57.8,29.92,SSW,201,4.5,13.0,59,0.00,,,0.00,VWS V14.01,2013-04-30 14:30:00,
2013-04-30 09:35:00,73.7,57.5,29.92,SSW,210,4.5,13.0,57,0.00,,,0.00,VWS V14.01,2013-04-30 14:35:00,
2013-04-30 09:40:00,73.9,57.7,29.92,SW,219,3.0,13.0,57,0.00,,,0.00,VWS V14.01,2013-04-30 14:40:00,
2013-04-30 09:45:00,74.1,57.4,29.91,SSW,194,7.5,15.0,56,0.00,,,0.00,VWS V14.01,2013-04-30 14:45:00,
2013-04-30 09:50:00,74.4,57.2,29.91,SSW,203,3.0,15.0,55,0.00,,,0.00,VWS V14.01,2013-04-30 14:50:00,
2013-04-30 09:55:00,74.6,56.9,29.92,South,188,12.0,15.0,54,0.00,,,0.00,VWS V14.01,2013-04-30 14:55:00,
2013-04-30 10:00:00,74.8,57.1,29.91,West,260,4.5,6.0,54,0.00,,,0.00,VWS V14.01,2013-04-30 15:00:00,
2013-04-30 10:05:00,75.3,57.0,29.91,SSE,158,6.0,9.0,53,0.00,,,0.00,VWS V14.01,2013-04-30 15:05:00,
2013-04-30 10:10:00,75.4,57.1,29.91,SSW,194,3.0,9.0,53,0.00,,,0.00,VWS V14.01,2013-04-30 15:10:00,
2013-04-30 10:15:00,75.7,56.3,29.91,SSW,201,6.0,9.0,51,0.00,,,0.00,VWS V14.01,2013-04-30 15:15:00,
2013-04-30 10:20:00,75.5,56.1,29.91,South,177,3.0,12.0,51,0.00,,,0.00,VWS V14.01,2013-04-30 15:20:00,
2013-04-30 10:25:00,75.7,55.8,29.91,South,182,7.5,12.0,50,0.00,,,0.00,VWS V14.01,2013-04-30 15:25:00,
2013-04-30 10:30:00,76.0,56.0,29.91,SSE,159,9.0,12.0,50,0.00,,,0.00,VWS V14.01,2013-04-30 15:30:00,
2013-04-30 10:35:00,76.1,55.0,29.91,SSW,202,6.0,12.0,48,0.00,,,0.00,VWS V14.01,2013-04-30 15:35:00,
2013-04-30 10:40:00,76.1,54.4,29.91,SSW,211,18.0,18.0,47,0.00,,,0.00,VWS V14.01,2013-04-30 15:40:00,
2013-04-30 10:45:00,76.3,54.6,29.91,SW,214,3.0,15.0,47,0.00,,,0.00,VWS V14.01,2013-04-30 15:45:00,
2013-04-30 10:50:00,76.6,54.3,29.91,WSW,238,12.0,15.0,46,0.00,,,0.00,VWS V14.01,2013-04-30 15:50:00,
2013-04-30 10:55:00,76.6,54.3,29.91,SW,215,4.5,15.0,46,0.00,,,0.00,VWS V14.01,2013-04-30 15:55:00,
2013-04-30 11:00:00,77.4,55.0,29.91,SE,143,3.0,15.0,46,0.00,,,0.00,VWS V14.01,2013-04-30 16:00:00,
2013-04-30 11:05:00,77.6,55.2,29.91,SW,224,1.5,15.0,46,0.00,,,0.00,VWS V14.01,2013-04-30 16:05:00,
2013-04-30 11:10:00,77.9,56.1,29.91,SW,218,3.0,15.0,47,0.00,,,0.00,VWS V14.01,2013-04-30 16:10:00,
2013-04-30 11:15:00,78.2,55.8,29.91,SW,229,4.5,15.0,46,0.00,,,0.00,VWS V14.01,2013-04-30 16:15:00,
2013-04-30 11:20:00,78.5,54.8,29.91,SW,236,4.5,15.0,44,0.00,,,0.00,VWS V14.01,2013-04-30 16:20:00,
2013-04-30 11:25:00,78.7,55.0,29.91,South,174,6.0,15.0,44,0.00,,,0.00,VWS V14.01,2013-04-30 16:25:00,
2013-04-30 11:30:00,78.6,53.0,29.91,SW,214,9.0,15.0,41,0.00,,,0.00,VWS V14.01,2013-04-30 16:30:00,
2013-04-30 11:35:00,78.6,53.6,29.91,SSE,163,9.0,15.0,42,0.00,,,0.00,VWS V14.01,2013-04-30 16:35:00,
2013-04-30 11:40:00,78.9,52.5,29.90,SSW,204,3.0,15.0,40,0.00,,,0.00,VWS V14.01,2013-04-30 16:40:00,
2013-04-30 11:45:00,79.0,53.3,29.90,SW,233,3.0,15.0,41,0.00,,,0.00,VWS V14.01,2013-04-30 16:45:00,
2013-04-30 11:50:00,79.3,53.6,29.90,South,177,4.5,15.0,41,0.00,,,0.00,VWS V14.01,2013-04-30 16:50:00,
2013-04-30 11:55:00,79.4,52.3,29.90,South,181,6.0,15.0,39,0.00,,,0.00,VWS V14.01,2013-04-30 16:55:00,
2013-04-30 12:00:00,79.1,51.3,29.90,SSW,205,13.5,15.0,38,0.00,,,0.00,VWS V14.01,2013-04-30 17:00:00,
2013-04-30 12:05:00,79.6,51.1,29.90,SSW,203,3.0,15.0,37,0.00,,,0.00,VWS V14.01,2013-04-30 17:05:00,
2013-04-30 12:10:00,79.9,50.6,29.90,South,172,6.0,16.0,36,0.00,,,0.00,VWS V14.01,2013-04-30 17:10:00,
2013-04-30 12:15:00,79.9,50.6,29.89,SSW,194,9.0,16.0,36,0.00,,,0.00,VWS V14.01,2013-04-30 17:15:00,
2013-04-30 12:20:00,79.9,49.8,29.89,SW,219,12.0,16.0,35,0.00,,,0.00,VWS V14.01,2013-04-30 17:20:00,
2013-04-30 12:25:00,79.9,47.4,29.89,SSW,194,1.5,16.0,32,0.00,,,0.00,VWS V14.01,2013-04-30 17:25:00,
2013-04-30 12:30:00,80.2,46.9,29.89,SE,140,10.5,16.0,31,0.00,,,0.00,VWS V14.01,2013-04-30 17:30:00,
2013-04-30 12:35:00,80.6,47.2,29.89,South,187,4.5,16.0,31,0.00,,,0.00,VWS V14.01,2013-04-30 17:35:00,
2013-04-30 12:40:00,80.4,46.2,29.89,SW,215,10.5,16.0,30,0.00,,,0.00,VWS V14.01,2013-04-30 17:40:00,
2013-04-30 12:45:00,80.4,47.9,29.88,South,188,18.0,18.0,32,0.00,,,0.00,VWS V14.01,2013-04-30 17:45:00,
2013-04-30 12:50:00,80.4,47.0,29.88,SW,222,9.0,16.0,31,0.00,,,0.00,VWS V14.01,2013-04-30 17:50:00,
2013-04-30 12:55:00,80.7,45.5,29.88,SSE,149,9.0,16.0,29,0.00,,,0.00,VWS V14.01,2013-04-30 17:55:00,
2013-04-30 13:00:00,80.4,46.2,29.88,SE,138,7.5,16.0,30,0.00,,,0.00,VWS V14.01,2013-04-30 18:00:00,
2013-04-30 13:05:00,80.5,46.2,29.88,South,179,12.0,16.0,30,0.00,,,0.00,VWS V14.01,2013-04-30 18:05:00,
2013-04-30 13:10:00,80.7,46.4,29.88,SSW,200,4.5,16.0,30,0.00,,,0.00,VWS V14.01,2013-04-30 18:10:00,
2013-04-30 13:15:00,80.8,46.5,29.88,SSW,194,12.0,16.0,30,0.00,,,0.00,VWS V14.01,2013-04-30 18:15:00,
2013-04-30 13:20:00,80.8,47.4,29.88,ESE,113,6.0,16.0,31,0.00,,,0.00,VWS V14.01,2013-04-30 18:20:00,
2013-04-30 13:25:00,81.4,46.1,29.88,SSE,156,13.5,16.0,29,0.00,,,0.00,VWS V14.01,2013-04-30 18:25:00,
2013-04-30 13:30:00,81.5,47.1,29.88,SE,127,6.0,16.0,30,0.00,,,0.00,VWS V14.01,2013-04-30 18:30:00,
2013-04-30 13:35:00,81.6,47.2,29.88,South,190,9.0,16.0,30,0.00,,,0.00,VWS V14.01,2013-04-30 18:35:00,
2013-04-30 13:40:00,81.7,46.4,29.87,SW,222,3.0,16.0,29,0.00,,,0.00,VWS V14.01,2013-04-30 18:40:00,
2013-04-30 13:49:00,82.0,47.5,29.88,SSW,195,6.0,6.0,30,0.00,,,0.00,VWS V14.01,2013-04-30 18:49:00,
2013-04-30 13:54:00,82.1,49.3,29.87,South,187,7.5,12.0,32,0.00,,,0.00,VWS V14.01,2013-04-30 18:54:00,
2013-04-30 13:59:00,82.3,48.7,29.87,SE,143,19.5,19.5,31,0.00,,,0.00,VWS V14.01,2013-04-30 18:59:00,
2013-04-30 14:00:00,82.2,48.6,29.87,South,182,15.0,15.0,31,0.00,,,0.00,VWS V14.01,2013-04-30 19:00:00,
2013-04-30 14:04:00,81.7,49.8,29.87,South,170,12.0,13.0,33,0.00,,,0.00,VWS V14.01,2013-04-30 19:04:00,
2013-04-30 14:09:00,81.8,49.9,29.87,South,191,3.0,13.0,33,0.00,,,0.00,VWS V14.01,2013-04-30 19:09:00,
2013-04-30 14:14:00,81.8,50.7,29.87,South,176,7.5,17.0,34,0.00,,,0.00,VWS V14.01,2013-04-30 19:14:00,
2013-04-30 14:19:00,81.6,51.3,29.87,SSW,194,6.0,17.0,35,0.00,,,0.00,VWS V14.01,2013-04-30 19:19:00,
2013-04-30 14:24:00,81.9,52.3,29.87,SSW,203,4.5,17.0,36,0.00,,,0.00,VWS V14.01,2013-04-30 19:24:00,
2013-04-30 14:29:00,81.6,51.3,29.87,SSW,195,3.0,17.0,35,0.00,,,0.00,VWS V14.01,2013-04-30 19:29:00,
2013-04-30 14:34:00,81.4,51.9,29.87,South,181,1.5,17.0,36,0.00,,,0.00,VWS V14.01,2013-04-30 19:34:00,
2013-04-30 14:39:00,82.0,50.1,29.87,SSW,210,10.5,17.0,33,0.00,,,0.00,VWS V14.01,2013-04-30 19:39:00,
2013-04-30 14:44:00,81.4,51.2,29.87,WSW,255,6.0,17.0,35,0.00,,,0.00,VWS V14.01,2013-04-30 19:44:00,
2013-04-30 14:49:00,81.7,51.4,29.87,SSE,157,13.5,17.0,35,0.00,,,0.00,VWS V14.01,2013-04-30 19:49:00,
2013-04-30 14:54:00,82.0,53.9,29.87,SSE,165,15.0,17.0,38,0.00,,,0.00,VWS V14.01,2013-04-30 19:54:00,
2013-04-30 14:59:00,81.6,50.5,29.87,South,180,9.0,17.0,34,0.00,,,0.00,VWS V14.01,2013-04-30 19:59:00,
2013-04-30 15:00:00,82.2,48.6,29.87,South,182,15.0,15.0,31,0.00,,,0.00,VWS V15.00,2013-04-30 20:00:00,
2013-04-30 15:04:00,81.6,51.3,29.87,ESE,111,13.5,17.0,35,0.00,,,0.00,VWS V14.01,2013-04-30 20:04:00,
2013-04-30 15:09:00,81.9,51.6,29.87,SSW,200,7.5,17.0,35,0.00,,,0.00,VWS V14.01,2013-04-30 20:09:00,
2013-04-30 15:14:00,82.3,52.7,29.87,SSW,203,3.0,17.0,36,0.00,,,0.00,VWS V14.01,2013-04-30 20:14:00,
2013-04-30 15:19:00,82.8,53.2,29.87,SE,132,3.0,17.0,36,0.00,,,0.00,VWS V14.01,2013-04-30 20:19:00,
2013-04-30 15:24:00,82.7,51.5,29.87,South,190,9.0,17.0,34,0.00,,,0.00,VWS V14.01,2013-04-30 20:24:00,
2013-04-30 15:29:00,82.6,52.2,29.86,South,181,18.0,18.0,35,0.00,,,0.00,VWS V14.01,2013-04-30 20:29:00,
2013-04-30 15:34:00,82.5,50.5,29.86,SSW,205,6.0,17.0,33,0.00,,,0.00,VWS V14.01,2013-04-30 20:34:00,
2013-04-30 15:39:00,82.5,51.3,29.86,SSW,201,6.0,17.0,34,0.00,,,0.00,VWS V14.01,2013-04-30 20:39:00,
2013-04-30 15:44:00,82.6,48.9,29.86,SSW,193,3.0,17.0,31,0.00,,,0.00,VWS V14.01,2013-04-30 20:44:00,
2013-04-30 15:49:00,82.4,48.8,29.86,SSE,160,13.5,17.0,31,0.00,,,0.00,VWS V14.01,2013-04-30 20:49:00,
2013-04-30 15:54:00,82.6,50.6,29.86,SSE,167,1.5,17.0,33,0.00,,,0.00,VWS V14.01,2013-04-30 20:54:00,
2013-04-30 15:59:00,82.6,50.6,29.86,SE,132,4.5,17.0,33,0.00,,,0.00,VWS V14.01,2013-04-30 20:59:00,
2013-04-30 16:00:00,82.6,50.6,29.86,ESE,111,1.5,17.0,33,0.00,,,0.00,VWS V14.01,2013-04-30 21:00:00,
2013-04-30 16:04:00,82.4,49.6,29.86,East,87,6.0,17.0,32,0.00,,,0.00,VWS V14.01,2013-04-30 21:04:00,
2013-04-30 16:09:00,82.2,48.6,29.86,SW,226,3.0,17.0,31,0.00,,,0.00,VWS V14.01,2013-04-30 21:09:00,
2013-04-30 16:14:00,82.2,49.4,29.86,South,176,3.0,17.0,32,0.00,,,0.00,VWS V14.01,2013-04-30 21:14:00,
2013-04-30 16:19:00,82.1,49.3,29.86,East,98,6.0,17.0,32,0.00,,,0.00,VWS V14.01,2013-04-30 21:19:00,
2013-04-30 16:24:00,82.1,50.2,29.85,South,172,15.0,17.0,33,0.00,,,0.00,VWS V14.01,2013-04-30 21:24:00,
2013-04-30 16:29:00,81.8,49.1,29.85,SSW,198,6.0,17.0,32,0.00,,,0.00,VWS V14.01,2013-04-30 21:29:00,
2013-04-30 16:34:00,81.4,48.7,29.85,South,181,3.0,17.0,32,0.00,,,0.00,VWS V14.01,2013-04-30 21:34:00,
2013-04-30 16:39:00,81.6,50.5,29.85,South,169,1.5,17.0,34,0.00,,,0.00,VWS V14.01,2013-04-30 21:39:00,
2013-04-30 16:44:00,82.0,50.9,29.85,South,177,3.0,17.0,34,0.00,,,0.00,VWS V14.01,2013-04-30 21:44:00,
2013-04-30 16:49:00,82.2,51.8,29.85,SSE,152,1.5,17.0,35,0.00,,,0.00,VWS V14.01,2013-04-30 21:49:00,
2013-04-30 16:54:00,82.0,50.9,29.85,SSW,210,0.0,17.0,34,0.00,,,0.00,VWS V14.01,2013-04-30 21:54:00,
2013-04-30 16:59:00,81.7,49.8,29.85,SSE,168,1.5,17.0,33,0.00,,,0.00,VWS V14.01,2013-04-30 21:59:00,
2013-04-30 17:00:00,82.6,50.6,29.86,ESE,111,1.5,17.0,33,0.00,,,0.00,VWS V15.00,2013-04-30 22:00:00,
2013-04-30 17:04:00,81.5,50.5,29.85,SSE,163,3.0,17.0,34,0.00,,,0.00,VWS V14.01,2013-04-30 22:04:00,
2013-04-30 17:09:00,81.3,48.7,29.85,SSW,210,13.5,17.0,32,0.00,,,0.00,VWS V14.01,2013-04-30 22:09:00,
2013-04-30 17:14:00,81.1,48.5,29.85,South,172,3.0,17.0,32,0.00,,,0.00,VWS V14.01,2013-04-30 22:14:00,
2013-04-30 17:19:00,81.1,48.5,29.85,ENE,71,7.5,17.0,32,0.00,,,0.00,VWS V14.01,2013-04-30 22:19:00,
2013-04-30 17:24:00,81.0,47.5,29.85,SSE,160,4.5,17.0,31,0.00,,,0.00,VWS V14.01,2013-04-30 22:24:00,
2013-04-30 17:29:00,80.9,48.3,29.85,ESE,114,6.0,17.0,32,0.00,,,0.00,VWS V14.01,2013-04-30 22:29:00,
2013-04-30 17:34:00,80.7,49.0,29.85,East,87,0.0,17.0,33,0.00,,,0.00,VWS V14.01,2013-04-30 22:34:00,
2013-04-30 17:39:00,80.9,48.3,29.85,ESE,116,3.0,17.0,32,0.00,,,0.00,VWS V14.01,2013-04-30 22:39:00,
2013-04-30 17:44:00,80.9,47.5,29.85,SE,125,6.0,17.0,31,0.00,,,0.00,VWS V14.01,2013-04-30 22:44:00,
2013-04-30 17:49:00,80.7,47.3,29.85,SSE,160,9.0,17.0,31,0.00,,,0.00,VWS V14.01,2013-04-30 22:49:00,
2013-04-30 17:54:00,80.6,48.9,29.85,SE,141,6.0,17.0,33,0.00,,,0.00,VWS V14.01,2013-04-30 22:54:00,
2013-04-30 17:59:00,80.6,48.0,29.85,SSE,160,3.0,17.0,32,0.00,,,0.00,VWS V14.01,2013-04-30 22:59:00,
2013-04-30 18:00:00,80.6,47.2,29.85,SE,142,6.0,17.0,31,0.00,,,0.00,VWS V14.01,2013-04-30 23:00:00,
2013-04-30 18:04:00,80.5,47.1,29.85,SSW,201,4.5,10.0,31,0.00,,,0.00,VWS V14.01,2013-04-30 23:04:00,
2013-04-30 18:09:00,80.3,47.8,29.85,South,189,9.0,16.0,32,0.00,,,0.00,VWS V14.01,2013-04-30 23:09:00,
2013-04-30 18:14:00,80.3,47.8,29.86,ENE,68,3.0,16.0,32,0.00,,,0.00,VWS V14.01,2013-04-30 23:14:00,
2013-04-30 18:19:00,80.0,46.7,29.86,South,184,3.0,16.0,31,0.00,,,0.00,VWS V14.01,2013-04-30 23:19:00,
2013-04-30 18:24:00,79.9,47.4,29.86,SSW,193,7.5,16.0,32,0.00,,,0.00,VWS V14.01,2013-04-30 23:24:00,
2013-04-30 18:29:00,79.7,48.1,29.86,South,191,6.0,16.0,33,0.00,,,0.00,VWS V14.01,2013-04-30 23:29:00,
2013-04-30 18:34:00,79.6,48.0,29.86,SSW,204,3.0,16.0,33,0.00,,,0.00,VWS V14.01,2013-04-30 23:34:00,
2013-04-30 18:39:00,79.5,47.9,29.86,SSE,167,10.5,16.0,33,0.00,,,0.00,VWS V14.01,2013-04-30 23:39:00,
2013-04-30 18:44:00,79.4,47.8,29.86,SW,225,4.5,16.0,33,0.00,,,0.00,VWS V14.01,2013-04-30 23:44:00,
2013-04-30 18:49:00,79.2,48.4,29.86,South,179,9.0,16.0,34,0.00,,,0.00,VWS V14.01,2013-04-30 23:49:00,
2013-04-30 18:54:00,79.0,48.3,29.86,SSE,148,6.0,16.0,34,0.00,,,0.00,VWS V14.01,2013-04-30 23:54:00,
2013-04-30 18:59:00,78.9,48.2,29.86,SSW,200,4.5,16.0,34,0.00,,,0.00,VWS V14.01,2013-04-30 23:59:00,
2013-04-30 19:00:00,80.6,47.2,29.85,SE,142,6.0,17.0,31,0.00,,,0.00,VWS V15.00,2013-05-01 00:00:00,
2013-04-30 19:04:00,78.8,48.1,29.86,SSE,163,4.5,16.0,34,0.00,,,0.00,VWS V14.01,2013-05-01 00:04:00,
2013-04-30 19:09:00,78.6,47.9,29.86,South,169,3.0,16.0,34,0.00,,,0.00,VWS V14.01,2013-05-01 00:09:00,
2013-04-30 19:14:00,78.4,48.5,29.86,SSE,163,4.5,16.0,35,0.00,,,0.00,VWS V14.01,2013-05-01 00:14:00,
2013-04-30 19:19:00,78.1,48.2,29.86,SSE,160,4.5,16.0,35,0.00,,,0.00,VWS V14.01,2013-05-01 00:19:00,
2013-04-30 19:24:00,77.9,48.1,29.86,SSW,200,7.5,16.0,35,0.00,,,0.00,VWS V14.01,2013-05-01 00:24:00,
2013-04-30 19:29:00,77.7,48.7,29.86,SSW,197,1.5,16.0,36,0.00,,,0.00,VWS V14.01,2013-05-01 00:29:00,
2013-04-30 19:34:00,77.4,49.1,29.86,SE,146,1.5,16.0,37,0.00,,,0.00,VWS V14.01,2013-05-01 00:34:00,
2013-04-30 19:39:00,77.0,49.5,29.86,South,173,3.0,16.0,38,0.00,,,0.00,VWS V14.01,2013-05-01 00:39:00,
2013-04-30 19:44:00,76.6,49.8,29.87,South,181,6.0,16.0,39,0.00,,,0.00,VWS V14.01,2013-05-01 00:44:00,
2013-04-30 19:49:00,76.2,49.5,29.87,SSE,156,0.0,16.0,39,0.00,,,0.00,VWS V14.01,2013-05-01 00:49:00,
2013-04-30 19:54:00,76.0,48.6,29.87,SSE,167,6.0,16.0,38,0.00,,,0.00,VWS V14.01,2013-05-01 00:54:00,
2013-04-30 19:59:00,75.7,49.0,29.87,South,170,0.0,16.0,39,0.00,,,0.00,VWS V14.01,2013-05-01 00:59:00,
2013-04-30 20:00:00,75.7,49.0,29.87,South,173,3.0,16.0,39,0.00,,,0.00,VWS V14.01,2013-05-01 01:00:00,
2013-04-30 20:04:00,75.4,49.4,29.87,SE,141,0.0,3.0,40,0.00,,,0.00,VWS V14.01,2013-05-01 01:04:00,
2013-04-30 20:09:00,75.0,49.7,29.87,SSE,166,4.5,4.5,41,0.00,,,0.00,VWS V14.01,2013-05-01 01:09:00,
2013-04-30 20:14:00,74.7,49.5,29.87,SSW,194,0.0,6.0,41,0.00,,,0.00,VWS V14.01,2013-05-01 01:14:00,
2013-04-30 20:19:00,74.5,49.3,29.87,South,179,4.5,6.0,41,0.00,,,0.00,VWS V14.01,2013-05-01 01:19:00,
2013-04-30 20:24:00,74.3,49.8,29.87,SE,129,3.0,6.0,42,0.00,,,0.00,VWS V14.01,2013-05-01 01:24:00,
2013-04-30 20:29:00,73.9,49.4,29.87,ESE,103,3.0,6.0,42,0.00,,,0.00,VWS V14.01,2013-05-01 01:29:00,
2013-04-30 20:34:00,73.6,49.8,29.87,SE,135,0.0,6.0,43,0.00,,,0.00,VWS V14.01,2013-05-01 01:34:00,
2013-04-30 20:39:00,73.2,49.4,29.87,SSE,162,3.0,6.0,43,0.00,,,0.00,VWS V14.01,2013-05-01 01:39:00,
2013-04-30 20:44:00,72.9,49.1,29.88,South,171,1.5,6.0,43,0.00,,,0.00,VWS V14.01,2013-05-01 01:44:00,
2013-04-30 20:49:00,72.8,49.6,29.88,South,188,1.5,6.0,44,0.00,,,0.00,VWS V14.01,2013-05-01 01:49:00,
2013-04-30 20:54:00,72.7,48.9,29.88,South,169,1.5,6.0,43,0.00,,,0.00,VWS V14.01,2013-05-01 01:54:00,
2013-04-30 20:59:00,72.7,48.9,29.87,SSE,159,3.0,6.0,43,0.00,,,0.00,VWS V14.01,2013-05-01 01:59:00,
2013-04-30 21:00:00,75.7,49.0,29.87,South,173,3.0,16.0,39,0.00,,,0.00,VWS V15.00,2013-05-01 02:00:00,
2013-04-30 21:04:00,72.6,48.8,29.88,SE,134,1.5,6.0,43,0.00,,,0.00,VWS V14.01,2013-05-01 02:04:00,
2013-04-30 21:09:00,72.3,49.2,29.88,SE,143,1.5,6.0,44,0.00,,,0.00,VWS V14.01,2013-05-01 02:09:00,
2013-04-30 21:14:00,71.8,49.3,29.88,ESE,109,0.0,6.0,45,0.00,,,0.00,VWS V14.01,2013-05-01 02:14:00,
2013-04-30 21:19:00,71.4,49.0,29.88,SSE,167,1.5,6.0,45,0.00,,,0.00,VWS V14.01,2013-05-01 02:19:00,
2013-04-30 21:24:00,71.2,49.4,29.88,SSE,148,4.5,6.0,46,0.00,,,0.00,VWS V14.01,2013-05-01 02:24:00,
2013-04-30 21:29:00,70.9,49.1,29.88,SSE,165,1.5,6.0,46,0.00,,,0.00,VWS V14.01,2013-05-01 02:29:00,
2013-04-30 21:34:00,70.9,49.1,29.89,ESE,110,0.0,6.0,46,0.00,,,0.00,VWS V14.01,2013-05-01 02:34:00,
2013-04-30 21:39:00,70.8,49.0,29.89,ESE,106,1.5,6.0,46,0.00,,,0.00,VWS V14.01,2013-05-01 02:39:00,
2013-04-30 21:44:00,70.4,49.2,29.89,SE,141,0.0,6.0,47,0.00,,,0.00,VWS V14.01,2013-05-01 02:44:00,
2013-04-30 21:49:00,70.3,49.1,29.89,ENE,77,1.5,6.0,47,0.00,,,0.00,VWS V14.01,2013-05-01 02:49:00,
2013-04-30 21:54:00,70.1,49.5,29.90,SE,143,0.0,6.0,48,0.00,,,0.00,VWS V14.01,2013-05-01 02:54:00,
2013-04-30 21:59:00,69.9,49.3,29.90,ESE,108,1.5,6.0,48,0.00,,,0.00,VWS V14.01,2013-05-01 02:59:00,
2013-04-30 22:00:00,69.7,49.2,29.90,ESE,112,1.5,6.0,48,0.00,,,0.00,VWS V14.01,2013-05-01 03:00:00,
2013-04-30 22:04:00,69.4,49.4,29.90,SE,129,0.0,1.0,49,0.00,,,0.00,VWS V14.01,2013-05-01 03:04:00,
2013-04-30 22:09:00,69.1,49.7,29.90,ESE,111,0.0,1.0,50,0.00,,,0.00,VWS V14.01,2013-05-01 03:09:00,
2013-04-30 22:13:00,68.8,49.4,29.90,SE,138,0.0,1.0,50,0.00,,,0.00,VWS V14.01,2013-05-01 03:13:00,
2013-04-30 22:18:00,68.6,49.2,29.90,SE,145,0.0,2.0,50,0.00,,,0.00,VWS V14.01,2013-05-01 03:18:00,
2013-04-30 22:23:00,68.4,49.6,29.90,SSE,151,0.0,2.0,51,0.00,,,0.00,VWS V14.01,2013-05-01 03:23:00,
2013-04-30 22:28:00,68.3,49.5,29.90,SSE,149,0.0,2.0,51,0.00,,,0.00,VWS V14.01,2013-05-01 03:28:00,
2013-04-30 22:33:00,68.0,49.7,29.90,SE,139,0.0,2.0,52,0.00,,,0.00,VWS V14.01,2013-05-01 03:33:00,
2013-04-30 22:38:00,67.7,49.5,29.91,SE,136,0.0,2.0,52,0.00,,,0.00,VWS V14.01,2013-05-01 03:38:00,
2013-04-30 22:43:00,67.5,49.8,29.91,SE,125,0.0,2.0,53,0.00,,,0.00,VWS V14.01,2013-05-01 03:43:00,
2013-04-30 22:48:00,67.3,50.1,29.91,SE,134,0.0,2.0,54,0.00,,,0.00,VWS V14.01,2013-05-01 03:48:00,
2013-04-30 22:53:00,67.1,50.4,29.91,ESE,103,0.0,2.0,55,0.00,,,0.00,VWS V14.01,2013-05-01 03:53:00,
2013-04-30 22:58:00,67.0,50.3,29.91,SE,126,1.5,2.0,55,0.00,,,0.00,VWS V14.01,2013-05-01 03:58:00,
2013-04-30 23:00:00,69.7,49.2,29.90,ESE,112,1.5,6.0,48,0.00,,,0.00,VWS V15.00,2013-05-01 04:00:00,
2013-04-30 23:01:00,66.9,50.2,29.91,SE,129,0.0,2.0,55,0.00,,,0.00,VWS V14.01,2013-05-01 04:01:00,
2013-04-30 23:06:00,66.8,50.6,29.91,ESE,108,0.0,2.0,56,0.00,,,0.00,VWS V14.01,2013-05-01 04:06:00,
2013-04-30 23:11:00,66.6,50.9,29.91,SE,138,0.0,2.0,57,0.00,,,0.00,VWS V14.01,2013-05-01 04:11:00,
2013-04-30 23:16:00,66.5,50.8,29.91,SE,138,0.0,2.0,57,0.00,,,0.00,VWS V14.01,2013-05-01 04:16:00,
2013-04-30 23:21:00,66.4,51.2,29.91,South,173,0.0,2.0,58,0.00,,,0.00,VWS V14.01,2013-05-01 04:21:00,
2013-04-30 23:26:00,66.3,51.1,29.91,East,85,0.0,2.0,58,0.00,,,0.00,VWS V14.01,2013-05-01 04:26:00,
2013-04-30 23:31:00,66.2,51.0,29.91,East,97,0.0,2.0,58,0.00,,,0.00,VWS V14.01,2013-05-01 04:31:00,
2013-04-30 23:36:00,66.0,51.3,29.91,East,97,0.0,2.0,59,0.00,,,0.00,VWS V14.01,2013-05-01 04:36:00,
2013-04-30 23:41:00,65.8,51.1,29.91,East,100,0.0,2.0,59,0.00,,,0.00,VWS V14.01,2013-05-01 04:41:00,
2013-04-30 23:46:00,65.6,51.4,29.91,SE,124,0.0,2.0,60,0.00,,,0.00,VWS V14.01,2013-05-01 04:46:00,
2013-04-30 23:51:00,65.5,51.3,29.91,SE,143,0.0,2.0,60,0.00,,,0.00,VWS V14.01,2013-05-01 04:51:00,
2013-04-30 23:56:00,65.4,51.2,29.91,SSE,156,0.0,2.0,60,0.00,,,0.00,VWS V14.01,2013-05-01 04:56:00,